TimeEDT,TemperatureF,Dew PointF,Humidity,Sea Level PressureIn,VisibilityMPH,Wind Direction,Wind SpeedMPH,Gust SpeedMPH,PrecipitationIn,Events,Conditions,WindDirDegrees,DateUTC
3:35 AM,59.0,55.4,88,29.70,10.0,North,13.8,21.9,N/A,,Overcast,360,2013-06-14 07:35:00
4:55 AM,57.2,53.6,88,29.74,10.0,North,5.8,-,N/A,,Overcast,350,2013-06-14 08:55:00
5:15 AM,57.2,53.6,88,29.75,10.0,NNW,5.8,-,N/A,,Overcast,330,2013-06-14 09:15:00
5:35 AM,59.0,53.6,82,29.75,10.0,NNW,5.8,-,N/A,,Overcast,330,2013-06-14 09:35:00
5:55 AM,59.0,53.6,82,29.76,10.0,NNW,6.9,-,N/A,Rain,Rain,340,2013-06-14 09:55:00
6:15 AM,57.2,53.6,88,29.76,10.0,NNW,5.8,-,N/A,Rain,Light Rain,330,2013-06-14 10:15:00
6:35 AM,57.2,55.4,94,29.77,10.0,NNW,4.6,-,N/A,Rain,Light Rain,330,2013-06-14 10:35:00
6:55 AM,57.2,55.4,94,29.78,10.0,NNW,4.6,-,N/A,Rain,Rain,330,2013-06-14 10:55:00
7:15 AM,57.2,55.4,94,29.79,10.0,North,4.6,-,N/A,Rain,Light Rain,350,2013-06-14 11:15:00
7:35 AM,59.0,55.4,88,29.80,10.0,North,4.6,-,N/A,,Mostly Cloudy,350,2013-06-14 11:35:00
7:55 AM,59.0,55.4,88,29.81,10.0,NNW,5.8,-,N/A,,Mostly Cloudy,340,2013-06-14 11:55:00
8:15 AM,60.8,55.4,82,29.83,10.0,North,9.2,-,N/A,,Mostly Cloudy,360,2013-06-14 12:15:00
8:35 AM,60.8,55.4,82,29.84,10.0,North,10.4,21.9,N/A,,Mostly Cloudy,10,2013-06-14 12:35:00
8:55 AM,60.8,55.4,82,29.86,10.0,North,9.2,18.4,N/A,,Scattered Clouds,10,2013-06-14 12:55:00
9:15 AM,62.6,53.6,72,29.87,10.0,NNE,12.7,18.4,N/A,,Mostly Cloudy,30,2013-06-14 13:15:00
9:35 AM,62.6,53.6,72,29.87,10.0,NNE,6.9,16.1,N/A,,Overcast,20,2013-06-14 13:35:00
9:55 AM,62.6,53.6,72,29.88,10.0,North,9.2,16.1,N/A,,Overcast,350,2013-06-14 13:55:00
10:15 AM,62.6,53.6,72,29.89,10.0,NNE,11.5,16.1,N/A,,Overcast,30,2013-06-14 14:15:00
10:35 AM,64.4,51.8,64,29.90,10.0,North,6.9,-,N/A,,Mostly Cloudy,350,2013-06-14 14:35:00
10:55 AM,64.4,51.8,64,29.90,10.0,North,10.4,17.3,N/A,,Scattered Clouds,360,2013-06-14 14:55:00
11:15 AM,66.2,51.8,60,29.90,10.0,North,8.1,-,N/A,,Scattered Clouds,10,2013-06-14 15:15:00
11:35 AM,66.2,51.8,60,29.91,10.0,NNW,4.6,-,N/A,,Clear,340,2013-06-14 15:35:00
11:55 AM,66.2,53.6,64,29.91,10.0,NNW,3.5,-,N/A,,Clear,340,2013-06-14 15:55:00
12:15 PM,69.8,55.4,60,29.91,10.0,North,5.8,-,N/A,,Clear,360,2013-06-14 16:15:00
12:35 PM,69.8,53.6,56,29.91,10.0,NNW,6.9,-,N/A,,Unknown,330,2013-06-14 16:35:00
12:55 PM,69.8,51.8,53,29.91,10.0,NNW,9.2,-,N/A,,Clear,340,2013-06-14 16:55:00
1:15 PM,71.6,53.6,53,29.91,10.0,NNW,3.5,-,N/A,,Scattered Clouds,340,2013-06-14 17:15:00
1:35 PM,73.4,55.4,53,29.91,10.0,NW,9.2,-,N/A,,Scattered Clouds,320,2013-06-14 17:35:00
1:55 PM,73.4,53.6,50,29.90,10.0,NW,8.1,16.1,N/A,,Scattered Clouds,320,2013-06-14 17:55:00
2:15 PM,75.2,51.8,44,29.90,10.0,NNW,9.2,18.4,N/A,,Scattered Clouds,330,2013-06-14 18:15:00
2:35 PM,77.0,53.6,44,29.90,10.0,NNW,9.2,-,N/A,,Scattered Clouds,330,2013-06-14 18:35:00
2:55 PM,75.2,51.8,44,29.91,10.0,NW,11.5,16.1,N/A,,Scattered Clouds,320,2013-06-14 18:55:00
3:15 PM,77.0,48.2,36,29.91,10.0,NW,12.7,17.3,N/A,,Mostly Cloudy,320,2013-06-14 19:15:00
3:35 PM,75.2,51.8,44,29.90,10.0,NNW,9.2,-,N/A,,Scattered Clouds,330,2013-06-14 19:35:00
3:55 PM,75.2,48.2,38,29.90,10.0,North,-9999.0,-,N/A,,Scattered Clouds,0,2013-06-14 19:55:00
4:15 PM,78.8,50.0,36,29.89,10.0,North,-9999.0,-,N/A,,Scattered Clouds,0,2013-06-14 20:15:00
4:30 PM,78.8,48.2,34,29.89,10.0,NW,11.5,16.1,N/A,,Clear,320,2013-06-14 20:30:00
4:55 PM,78.8,48.2,34,29.89,10.0,North,10.4,17.3,N/A,,Mostly Cloudy,350,2013-06-14 20:55:00
5:15 PM,78.8,48.2,34,29.90,10.0,NW,9.2,17.3,N/A,,Scattered Clouds,310,2013-06-14 21:15:00
5:35 PM,78.8,51.8,39,29.90,10.0,NW,8.1,17.3,N/A,,Clear,320,2013-06-14 21:35:00
5:55 PM,78.8,51.8,39,29.90,10.0,WNW,10.4,17.3,N/A,,Clear,300,2013-06-14 21:55:00
6:15 PM,77.0,51.8,41,29.91,10.0,NW,5.8,-,N/A,,Scattered Clouds,320,2013-06-14 22:15:00
6:35 PM,75.2,53.6,47,29.91,10.0,NW,6.9,-,N/A,,Mostly Cloudy,310,2013-06-14 22:35:00
6:55 PM,78.8,53.6,42,29.92,10.0,NW,11.5,17.3,N/A,,Scattered Clouds,310,2013-06-14 22:55:00
7:15 PM,75.2,53.6,47,29.92,10.0,NW,9.2,-,N/A,,Scattered Clouds,310,2013-06-14 23:15:00
7:35 PM,73.4,53.6,50,29.92,10.0,NW,6.9,-,N/A,,Scattered Clouds,310,2013-06-14 23:35:00
7:50 PM,73.4,53.6,50,29.93,10.0,NW,4.6,-,N/A,,Clear,310,2013-06-14 23:50:00
8:15 PM,73.4,53.6,50,29.94,10.0,Calm,Calm,-,N/A,,Clear,0,2013-06-15 00:15:00
8:35 PM,71.6,55.4,57,29.94,10.0,Calm,Calm,-,N/A,,Clear,0,2013-06-15 00:35:00
8:55 PM,69.8,55.4,60,29.95,10.0,Calm,Calm,-,N/A,,Clear,0,2013-06-15 00:55:00
9:15 PM,69.8,57.2,64,29.96,10.0,Calm,Calm,-,N/A,,Clear,0,2013-06-15 01:15:00
9:35 PM,69.8,55.4,60,29.96,10.0,Calm,Calm,-,N/A,,Clear,0,2013-06-15 01:35:00
9:55 PM,68.0,55.4,64,29.97,10.0,Calm,Calm,-,N/A,,Clear,0,2013-06-15 01:55:00
10:15 PM,68.0,55.4,64,29.98,10.0,Calm,Calm,-,N/A,,Clear,0,2013-06-15 02:15:00
10:35 PM,68.0,55.4,64,29.98,10.0,NW,4.6,-,N/A,,Scattered Clouds,310,2013-06-15 02:35:00
10:55 PM,66.2,55.4,68,29.99,10.0,Calm,Calm,-,N/A,,Scattered Clouds,0,2013-06-15 02:55:00
11:15 PM,66.2,55.4,68,29.99,10.0,Calm,Calm,-,N/A,,Clear,0,2013-06-15 03:15:00
11:35 PM,69.8,55.4,60,30.00,10.0,Calm,Calm,-,N/A,,Mostly Cloudy,0,2013-06-15 03:35:00
11:55 PM,69.8,55.4,60,30.00,10.0,Calm,Calm,-,N/A,,Overcast,0,2013-06-15 03:55:00